Погода в Буяге

Поиск расширенной информации на нашем сайте:

Полезная информация:

Новости сайта



02.01.2020
Опубликован Долгосрочный прогноз погоды по городам России и ближнего зарубежья на январь 2020 года.
Карты: Прогноз на январь и февраль 2020 года, Сравнение прогнозируемой аномалии приземной температуры воздуха на январь 2020 года по разным моделям.




Погода в Буяге - сегодня

Время (UTC), дата Ветер
(°,м/с) 
Видим.   Явления Облачность Т
(°С)
Тd
(°С)
f(%) Тe
(°С)
Pmin
(гПа)
dP
(гПа)
Po
(мм)
O2
(г/м3)
Тmin Tmax R s Состояние
почвы
09 23.11.20 тихо ()   20000 м  слаб. снег  10/0 средняя 
[As op]
-18.5 -21.1 80 -19  1019.2  729  317           
12 23.11.20 тихо ()   20000 м  слаб. снег  10/0 верхняя 
[Cs]
-19.7 -22.3 80 -20  1011.5  1.9  731  319    -17.9     
15 23.11.20 тихо ()   20000 м  слаб. снег  10/0 средняя 
[As op]
-20 -22.6 80 -20  1013.4  1.8  732  320           
18 23.11.20 тихо ()   20000 м  слаб. снег  10/0 средняя 
[As op]
-19.1 -21.7 80 -19  1014.5  1.2  733  319           
21 23.11.20 290 (З) 20000 м  слаб. снег  10/0 средняя 
[As op]
-14 -17.5 75 -16  1015.2  1.4  734  313           
00 24.11.20 340 (С) 20000 м  слаб. снег  10/0 средняя 
[As op]
-16 -18.7 80 -16  1016.6  1.1  735  316  -20    0.9  35  равномерный
сухой снег
100% 
15 24.11.20 270 (З) 20000 м  слаб. снег  10/0 средняя 
[As op]
-13 -18.2 65 -16  1021.4  0.9  739  314           
18 24.11.20 290 (З) 20000 м  слаб. снег  10/0 средняя 
[As op]
-13.1 -18.3 65 -18  1021.6  0.2  739  314           
21 24.11.20 290 (З) 20000 м  слаб. снег  10/0 средняя 
[As op]
-14.2 -18.5 70 -20  1022  0.2  739  316           
00 25.11.20 270 (З) 20000 м  слаб. снег  10/0 средняя 
[As op]
-14.6 -19.7 65 -19  1022.3  0.2  739  316  -14.7    0.7  36  равномерный
сухой снег
100% 
03 25.11.20 270 (З) 20000 м  {снег}  10/0 средняя 
[As trans]
-14.1 -19.3 65 -18  1022.3  0.1  739  316           
06 25.11.20 270 (З) 20000 м  {снег}  10/0 средняя 
[As trans]
-14.5 -19.6 65 -19  1022.3  739  316           
09 25.11.20 270 (З) 20000 м  позёмок  10/0 средняя 
[As trans]
-15.2 -20.3 65 -20  1023.4  740  317           
12 25.11.20 270 (З) 50000 м  позёмок  10/0 средняя 
[As trans]
-15.4 -20.5 65 -20  1023.6  0.2  740  318    -12  0.2     
15 25.11.20 270 (З) 20000 м    10/0 средняя 
[As trans]
-15.8 -20 70 -20  1024.5  0.7  741  318           
18 25.11.20 тихо ()   20000 м    10/0 верхняя 
[Cs]
-20.5 -23.1 80 -21  1026.4  1.2  741  325           
21 25.11.20 340 (С) 20000 м    ясно 
-23 -25.6 79 -26  1027.4  0.6  742  328           
00 26.11.20 050 (СВ) 20000 м  слаб. снег  10/0 верхняя 
[Cs]
-25.4 -28.5 75 -26  1028.4  0.7  742  332  -25.9    0.2  36  равномерный
сухой снег
100% 
03 26.11.20 270 (З) 10 км  слаб. снег  10/0 средняя 
[As op]
-13.8 -18.1 70 -18  1027.1  0.3  743  317           
06 26.11.20 270 (З) 20000 м  позёмок{снег}  10/0 верхняя 
[Cs]
-13.5 -18.7 65 -18  1028.1  1.1  743  317           
09 26.11.20 270 (З) 20000 м    10/0 верхняя 
[Cs]
-14.9 -19.2 70 -17  1029.2  1.4  745  319           
12 26.11.20 270 (З) 50000 м    8/0 верхняя 
[Cs]
-15.2 -19.4 70 -20  1029.9  0.1  745  319    -13.2  0.3     
15 26.11.20 270 (З) 20000 м  позёмок  10/0 средняя 
[As trans]
-14.7 -19 70 -20  1029.5  -0.4  744  318           
18 26.11.20 270 (З) 20000 м  позёмок  10/0 средняя 
[As trans]
-14.1 -18.4 70 -19  1029.7  0.3  745  318           
21 26.11.20 290 (З) 20000 м  слаб. снег  10/0 средняя 
[As op]
-14.3 -18.6 70 -16  1029.5  -0.2  744  318           
Время (UTC), дата Ветер
(°,м/с) 
Видим.   Явления Облачность Т
(°С)
Тd
(°С)
f(%) Тe
(°С)
Pmin
(гПа)
dP
(гПа)
Po
(мм)
O2
(г/м3)
Тmin Tmax R s Состояние
почвы

Для получения пояснительной информации подведите курсор к названию столбца.

ПОГОДА в Буяге - архив

Всё, что Вы хотите узнать о погоде в Буяге - удобно и подробно!

Выберите нужную дату (начиная с 1 января 2019* года) и нажмите кнопку "Найти".
Будут отображены архивные сводки погоды по пункту Буяга, начиная с указанной даты.


Отображать данные в формате CSV (для использования в таблицах Excel)


Внимание! Наш архив погоды предназначен исключительно для личного некоммерческого использования в познавательных целях. Если Вам необходимы официальные справки о состоянии погоды (для производственных, юридических, коммерческих и т.п. целей), обращайтесь в органы Росгидромета.

*Примечание: данная дата относится к архиву по метеостанциям СССР (Россия, СНГ, Балтия).
Архив по метеостанциям Зарубежной Европы и Азии (кроме Китая) хранится 10 дней, по другим регионам земного шара (Китай, Африка, Америка, Австралия, Океания) - 1 день.

Буяга - район местоположения метеостанции


Название, широта, долгота, высота метеостанции:
Буяга 59.6°ш. 127.2°д. 278 м над ур. моря [Российская Федерация]

Дополнительная информация

В oтличие oт бoльшинства пoгoдных сайтoв мы публикуем пoдрoбную метеoинфoрмацию в детальнoм прoфессиoнальнoм фoрмате.

Характеристики температуры и влажнoсти вoздуха измеряются на высoте 2 м в тени вдали oт зданий и деревьев.
Скoрoсть ветра измеряется на высoте 10 м (на урoвне рoста челoвека скoрoсть ветра ниже в 1.5-2 раза). Если метеoстанция нахoдится в гoрoде или в лесу, тo скoрoсть ветра занижена на 2-4 м/с пo сравнению с oткрытым местoм. Скoрoсть ветра над акватoриями крупных рек и oзёр, а также на вершинах хoлмoв на 2-5 м/с выше, чем в oбычных услoвиях.
Атмoсфернoе давление в разных тoчках местнoсти мoжет значительнo oтличаться oт давления на метеoстанции, в зависимoсти oт услoвий рельефа (при пoдъёме на 10 м давление пoнижается примернo на 1 мм рт.ст.).